User: anonymous   Login
Location: Unspecified
(0.0000°N, 0.0000°E)
Time: 22:19:39
(UTC+00:00)
Language:

TBA - TO BE ASSIGNED - Orbit

View from above orbital plane
View from above orbital plane
View from above satellite
View from above satellite

Ground track
Ground track

The orbit is defined by the following mean orbital elements,

1 68920U          26145.39196897 +.00000000 +00000-0 +43619-3 0 00004
2 68920  51.8734 177.7247 0009321  60.2081 299.9829 15.33228809    01
Epoch (UTC): 25 May 2026 09:24:26
Eccentricity: 0.0009321
inclination: 51.8734°
perigee height: 460 km
apogee height: 473 km
right ascension of ascending node: 177.7247°
argument of perigee: 60.2081°
revolutions per day: 15.33228809
mean anomaly at epoch: 299.9829°

The dashed part of the orbit path shows where the satellite is in the earth's shadow,  

DLR